Location: Hopville
(44.8032°N, 123.1329°W)
Time: 17:17:11
(UTC+00:00)

Cosmos 1300 - Pass Details

Date: 24 January 2021
Orbit: 511 x 513 km, 82.5° (Epoch: 28 February)

Event Time Altitude Azimuth Distance (km) Brightness Sun altitude
Rises 14:21:53 0° 189° (S) 2,612 6.3 -13.8°
Reaches altitude 10° 14:24:00 10° 190° (S) 1,731 5.4 -13.4°
Maximum altitude 14:27:48 82° 278° (W) 525 2.6 -12.8°
Drops below altitude 10° 14:31:38 10° 7° (N) 1,747 5.3 -12.1°
Sets 14:33:47 0° 8° (N) 2,639 6.2 -11.7°
